| time (UTC) | temp F | wind direction | speed MPH | gust MPH | rain 1hr in | rain 24hr in | rain mn in | humidity % | barometer mb |
| 20260506062506 | 50 | 207 | 3.0 | 7.0 | 0.00 | 0.00 | 0.00 | 84 | 1008.4 |
| 20260506062007 | 50 | 200 | 4.0 | 7.0 | 0.00 | 0.00 | 0.00 | 83 | 1008.5 |
| 20260506061512 | 50 | 187 | 4.0 | 6.0 | 0.00 | 0.00 | 0.00 | 83 | 1008.5 |
| 20260506061007 | 50 | 211 | 3.0 | 7.0 | 0.00 | 0.00 | 0.00 | 82 | 1008.5 |
| 20260506060507 | 50 | 159 | 4.0 | 7.0 | 0.00 | 0.00 | 0.00 | 81 | 1008.5 |
| 20260506051003 | 53 | 211 | 2.0 | 5.0 | 0.00 | 0.00 | 0.00 | 79 | 1008.6 |
| 20260506050503 | 54 | 217 | 3.0 | 7.0 | 0.00 | 0.00 | 0.00 | 77 | 1008.6 |
| 20260506045008 | 53 | 222 | 3.0 | 6.0 | 0.00 | 0.00 | 0.00 | 85 | 1008.6 |
| 20260506044520 | 51 | 227 | 1.0 | 6.0 | 0.00 | 0.00 | 0.00 | 83 | 1008.7 |
| 20260506044007 | 51 | 238 | 1.0 | 7.0 | 0.00 | 0.00 | 0.00 | 83 | 1008.7 |
| 20260506043508 | 51 | 188 | 5.0 | 7.0 | 0.00 | 0.00 | 0.00 | 82 | 1008.6 |
| 20260506043023 | 51 | 207 | 1.0 | 4.0 | 0.00 | 0.00 | 0.00 | 83 | 1008.5 |
| 20260506042503 | 51 | 181 | 2.0 | 4.0 | 0.00 | 0.00 | 0.00 | 83 | 1008.6 |
| 20260506042004 | 50 | 259 | 0.0 | 6.0 | 0.00 | 0.00 | 0.00 | 83 | 1008.7 |
| 20260506041507 | 50 | 222 | 1.0 | 6.0 | 0.00 | 0.00 | 0.00 | 82 | 1008.6 |
| 20260506041004 | 50 | 203 | 1.0 | 6.0 | 0.00 | 0.00 | 0.00 | 82 | 1008.7 |
| 20260506040503 | 51 | 174 | 4.0 | 6.0 | 0.00 | 0.00 | 0.00 | 81 | 1008.7 |
| 20260506040013 | 51 | 159 | 3.0 | 4.0 | 0.00 | 0.00 | 0.00 | 81 | 1008.6 |
| 20260506035506 | 51 | 204 | 1.0 | 4.0 | 0.00 | 0.00 | 0.00 | 81 | 1008.6 |
| 20260506035007 | 51 | 186 | 2.0 | 4.0 | 0.00 | 0.00 | 0.00 | 80 | 1008.6 |
| 20260506034528 | 52 | 145 | 1.0 | 4.0 | 0.00 | 0.00 | 0.00 | 79 | 1008.6 |
| 20260506034013 | 52 | 150 | 1.0 | 5.0 | 0.00 | 0.00 | 0.00 | 79 | 1008.5 |
| 20260506033511 | 52 | 217 | 0.0 | 6.0 | 0.00 | 0.00 | 0.00 | 80 | 1008.5 |
| 20260506033023 | 52 | 228 | 2.0 | 6.0 | 0.00 | 0.00 | 0.00 | 80 | 1008.5 |
| 20260506032508 | 52 | 190 | 3.0 | 7.0 | 0.00 | 0.00 | 0.00 | 79 | 1008.5 |
| 20260506032008 | 52 | 215 | 4.0 | 7.0 | 0.00 | 0.00 | 0.00 | 80 | 1008.4 |
| 20260506031524 | 52 | 230 | 2.0 | 6.0 | 0.00 | 0.00 | 0.00 | 79 | 1008.3 |
| 20260506031004 | 53 | 211 | 3.0 | 7.0 | 0.00 | 0.00 | 0.00 | 78 | 1008.3 |
| 20260506030507 | 54 | 196 | 2.0 | 7.0 | 0.00 | 0.00 | 0.00 | 79 | 1008.2 |
| 20260506030010 | 53 | 217 | 2.0 | 6.0 | 0.00 | 0.00 | 0.00 | 80 | 1008.5 |
| 20260506025509 | 53 | 216 | 2.0 | 5.0 | 0.00 | 0.00 | 0.00 | 80 | 1008.5 |
| 20260506025007 | 53 | 183 | 2.0 | 5.0 | 0.00 | 0.00 | 0.00 | 78 | 1008.5 |
| 20260506024515 | 53 | 201 | 1.0 | 4.0 | 0.00 | 0.00 | 0.00 | 77 | 1008.4 |
| 20260506024007 | 53 | 225 | 1.0 | 4.0 | 0.00 | 0.00 | 0.00 | 76 | 1008.5 |
| 20260506023508 | 54 | 204 | 2.0 | 5.0 | 0.00 | 0.00 | 0.00 | 77 | 1008.5 |
| 20260506023022 | 53 | 238 | 2.0 | 5.0 | 0.00 | 0.00 | 0.00 | 77 | 1008.5 |
| 20260506022507 | 53 | 228 | 2.0 | 5.0 | 0.00 | 0.00 | 0.00 | 76 | 1008.4 |
| 20260506022008 | 54 | 203 | 1.0 | 5.0 | 0.00 | 0.00 | 0.00 | 76 | 1008.3 |
| 20260506021524 | 54 | 207 | 1.0 | 5.0 | 0.00 | 0.00 | 0.00 | 76 | 1008.6 |
| 20260506021007 | 54 | 194 | 2.0 | 5.0 | 0.00 | 0.00 | 0.00 | 76 | 1008.7 |
| 20260506020514 | 54 | 199 | 0.0 | 6.0 | 0.00 | 0.00 | 0.00 | 75 | 1008.7 |
| 20260506020026 | 54 | 177 | 3.0 | 6.0 | 0.00 | 0.00 | 0.00 | 76 | 1008.6 |
| 20260506015505 | 54 | 219 | 3.0 | 6.0 | 0.00 | 0.00 | 0.00 | 75 | 1008.6 |
| 20260506015007 | 54 | 205 | 3.0 | 4.0 | 0.00 | 0.00 | 0.00 | 74 | 1008.6 |
| 20260506014511 | 54 | 207 | 1.0 | 5.0 | 0.00 | 0.00 | 0.00 | 76 | 1008.6 |
| 20260506014005 | 55 | 228 | 1.0 | 5.0 | 0.00 | 0.00 | 0.00 | 74 | 1008.8 |
| 20260506013506 | 55 | 200 | 3.0 | 6.0 | 0.00 | 0.00 | 0.00 | 74 | 1008.7 |
| 20260506013034 | 55 | 260 | 1.0 | 6.0 | 0.00 | 0.00 | 0.00 | 74 | 1008.6 |
| 20260506012507 | 55 | 197 | 3.0 | 5.0 | 0.00 | 0.00 | 0.00 | 73 | 1008.5 |
| 20260506012010 | 56 | 191 | 2.0 | 4.0 | 0.00 | 0.00 | 0.00 | 72 | 1008.4 |
| 20260506011525 | 57 | 192 | 1.0 | 4.0 | 0.00 | 0.00 | 0.00 | 73 | 1008.2 |
| 20260506011008 | 57 | 200 | 2.0 | 6.0 | 0.00 | 0.00 | 0.00 | 72 | 1008.2 |
| 20260506010508 | 57 | 202 | 3.0 | 7.0 | 0.00 | 0.00 | 0.00 | 74 | 1008.2 |
| 20260506010027 | 56 | 199 | 3.0 | 7.0 | 0.00 | 0.00 | 0.00 | 74 | 1008.2 |
| 20260506005507 | 55 | 205 | 2.0 | 6.0 | 0.00 | 0.00 | 0.00 | 75 | 1008.2 |
| 20260506005010 | 55 | 215 | 4.0 | 6.0 | 0.00 | 0.00 | 0.00 | 73 | 1008.1 |
| 20260506004526 | 56 | 204 | 2.0 | 4.0 | 0.00 | 0.00 | 0.00 | 71 | 1008.1 |
| 20260506004003 | 56 | 234 | 0.0 | 6.0 | 0.00 | 0.00 | 0.00 | 73 | 1008.2 |
| 20260506003509 | 56 | 213 | 3.0 | 6.0 | 0.00 | 0.00 | 0.00 | 71 | 1008.1 |
| 20260506003016 | 57 | 215 | 2.0 | 5.0 | 0.00 | 0.00 | 0.00 | 70 | 1008.1 |
| 20260506002504 | 57 | 226 | 1.0 | 9.0 | 0.00 | 0.00 | 0.00 | 69 | 1008.0 |
| 20260506002009 | 58 | 248 | 1.0 | 9.0 | 0.00 | 0.00 | 0.00 | 69 | 1007.9 |
| 20260506001520 | 58 | 255 | 4.0 | 9.0 | 0.00 | 0.00 | 0.00 | 71 | 1007.7 |
| 20260506001009 | 57 | 203 | 3.0 | 8.0 | 0.00 | 0.00 | 0.00 | 70 | 1007.5 |
| 20260506000510 | 58 | 219 | 3.0 | 8.0 | 0.00 | 0.00 | 0.00 | 67 | 1007.4 |
| 20260506000020 | 60 | 203 | 6.0 | 8.0 | 0.00 | 0.00 | 0.00 | 63 | 1007.1 |
| 20260505235509 | 62 | 213 | 4.0 | 7.0 | 0.00 | 0.00 | 0.00 | 63 | 1007.1 |
| 20260505235012 | 63 | 193 | 3.0 | 7.0 | 0.00 | 0.00 | 0.00 | 63 | 1007.0 |
| 20260505234526 | 64 | 236 | 3.0 | 7.0 | 0.00 | 0.00 | 0.00 | 61 | 1007.0 |
| 20260505234007 | 65 | 216 | 1.0 | 5.0 | 0.00 | 0.00 | 0.00 | 60 | 1006.8 |
| 20260505233506 | 66 | 242 | 3.0 | 5.0 | 0.00 | 0.00 | 0.00 | 59 | 1006.9 |
| 20260505233016 | 66 | 210 | 1.0 | 4.0 | 0.00 | 0.00 | 0.00 | 59 | 1006.8 |
| 20260505232507 | 66 | 237 | 0.0 | 7.0 | 0.00 | 0.00 | 0.00 | 60 | 1006.9 |
| 20260505232007 | 65 | 245 | 2.0 | 11.0 | 0.00 | 0.00 | 0.00 | 61 | 1006.9 |
| 20260505231518 | 64 | 331 | 3.0 | 13.0 | 0.00 | 0.00 | 0.00 | 62 | 1006.8 |
| 20260505231005 | 63 | 311 | 5.0 | 13.0 | 0.00 | 0.00 | 0.00 | 64 | 1006.9 |
| 20260505230509 | 61 | 193 | 6.0 | 17.0 | 0.00 | 0.00 | 0.00 | 67 | 1007.2 |
| 20260505230020 | 60 | 61 | 5.0 | 20.0 | 0.00 | 0.00 | 0.00 | 67 | 1005.9 |
| 20260505225506 | 60 | 167 | 11.0 | 20.0 | 0.00 | 0.00 | 0.00 | 67 | 1005.4 |
| 20260505225007 | 60 | 156 | 10.0 | 23.0 | 0.00 | 0.00 | 0.00 | 66 | 1005.3 |
| 20260505224524 | 60 | 258 | 12.0 | 23.0 | 0.00 | 0.00 | 0.00 | 66 | 1005.2 |
| 20260505224011 | 60 | 224 | 12.0 | 22.0 | 0.00 | 0.00 | 0.00 | 66 | 1005.1 |
| 20260505223508 | 61 | 184 | 13.0 | 22.0 | 0.00 | 0.00 | 0.00 | 66 | 1005.0 |
| 20260505223036 | 61 | 215 | 14.0 | 25.0 | 0.00 | 0.00 | 0.00 | 66 | 1005.1 |
| 20260505222512 | 60 | 209 | 13.0 | 25.0 | 0.00 | 0.00 | 0.00 | 66 | 1004.9 |
| 20260505222011 | 60 | 221 | 12.0 | 23.0 | 0.00 | 0.00 | 0.00 | 67 | 1004.8 |
| 20260505221514 | 60 | 228 | 13.0 | 23.0 | 0.00 | 0.00 | 0.00 | 67 | 1004.9 |
| 20260505221010 | 60 | 289 | 11.0 | 25.0 | 0.00 | 0.00 | 0.00 | 67 | 1004.8 |
| 20260505220506 | 60 | 198 | 12.0 | 25.0 | 0.00 | 0.00 | 0.00 | 67 | 1004.7 |
| 20260505220031 | 60 | 203 | 12.0 | 24.0 | 0.00 | 0.00 | 0.00 | 68 | 1004.7 |
| 20260505215508 | 59 | 184 | 12.0 | 24.0 | 0.00 | 0.00 | 0.00 | 68 | 1004.6 |
| 20260505215007 | 60 | 192 | 14.0 | 24.0 | 0.00 | 0.00 | 0.00 | 67 | 1004.6 |
| 20260505214532 | 60 | 148 | 14.0 | 24.0 | 0.00 | 0.00 | 0.00 | 67 | 1004.7 |
| 20260505214007 | 61 | 207 | 17.0 | 26.0 | 0.00 | 0.00 | 0.00 | 65 | 1004.8 |
| 20260505213514 | 62 | 171 | 17.0 | 28.0 | 0.00 | 0.00 | 0.00 | 65 | 1004.7 |
| 20260505213024 | 62 | 219 | 16.0 | 28.0 | 0.00 | 0.00 | 0.00 | 65 | 1004.9 |
| 20260505212509 | 62 | 191 | 13.0 | 27.0 | 0.00 | 0.00 | 0.00 | 65 | 1004.6 |
| 20260505212012 | 62 | 210 | 14.0 | 27.0 | 0.00 | 0.00 | 0.00 | 65 | 1004.6 |
| 20260505211528 | 62 | 207 | 12.0 | 24.0 | 0.00 | 0.00 | 0.00 | 64 | 1004.5 |
| 20260505211007 | 62 | 207 | 13.0 | 23.0 | 0.00 | 0.00 | 0.00 | 64 | 1004.7 |
| 20260505210510 | 62 | 190 | 12.0 | 22.0 | 0.00 | 0.00 | 0.00 | 64 | 1004.6 |
| 20260505210019 | 62 | 224 | 15.0 | 22.0 | 0.00 | 0.00 | 0.00 | 64 | 1004.6 |
| 20260505205511 | 62 | 210 | 12.0 | 22.0 | 0.00 | 0.00 | 0.00 | 65 | 1004.6 |
| 20260505205008 | 61 | 220 | 13.0 | 24.0 | 0.00 | 0.00 | 0.00 | 66 | 1004.4 |
| 20260505204523 | 61 | 210 | 14.0 | 24.0 | 0.00 | 0.00 | 0.00 | 66 | 1004.4 |
| 20260505204008 | 61 | 173 | 14.0 | 21.0 | 0.00 | 0.00 | 0.00 | 66 | 1004.5 |
| 20260505203507 | 61 | 219 | 15.0 | 28.0 | 0.00 | 0.00 | 0.00 | 67 | 1004.7 |
| 20260505203004 | 61 | 199 | 14.0 | 28.0 | 0.00 | 0.00 | 0.00 | 67 | 1004.7 |
| 20260505202504 | 61 | 194 | 16.0 | 22.0 | 0.00 | 0.00 | 0.00 | 67 | 1004.7 |
| 20260505202004 | 61 | 195 | 15.0 | 22.0 | 0.00 | 0.00 | 0.00 | 67 | 1004.6 |
| 20260505201510 | 61 | 213 | 15.0 | 22.0 | 0.00 | 0.00 | 0.00 | 68 | 1004.6 |
| 20260505201004 | 60 | 181 | 15.0 | 22.0 | 0.00 | 0.00 | 0.00 | 67 | 1004.6 |
| 20260505200504 | 61 | 181 | 15.0 | 22.0 | 0.00 | 0.00 | 0.00 | 67 | 1004.8 |
| 20260505200016 | 61 | 185 | 15.0 | 22.0 | 0.00 | 0.00 | 0.00 | 67 | 1004.9 |
| 20260505195504 | 61 | 182 | 15.0 | 25.0 | 0.00 | 0.00 | 0.00 | 66 | 1005.0 |
| 20260505195003 | 62 | 201 | 17.0 | 24.0 | 0.00 | 0.00 | 0.00 | 66 | 1005.1 |
| 20260505194511 | 62 | 187 | 14.0 | 21.0 | 0.00 | 0.00 | 0.00 | 65 | 1005.2 |
| 20260505194007 | 62 | 186 | 13.0 | 21.0 | 0.00 | 0.00 | 0.00 | 66 | 1005.2 |
| 20260505193504 | 61 | 182 | 13.0 | 20.0 | 0.00 | 0.00 | 0.00 | 67 | 1005.2 |
| 20260505193005 | 61 | 188 | 13.0 | 20.0 | 0.00 | 0.00 | 0.00 | 68 | 1005.2 |
| 20260505192503 | 60 | 190 | 13.0 | 19.0 | 0.00 | 0.00 | 0.00 | 69 | 1005.4 |
| 20260505192005 | 60 | 190 | 13.0 | 17.0 | 0.00 | 0.00 | 0.00 | 69 | 1005.5 |
| 20260505191521 | 60 | 195 | 12.0 | 17.0 | 0.00 | 0.00 | 0.00 | 68 | 1005.7 |
| 20260505191003 | 60 | 203 | 11.0 | 17.0 | 0.00 | 0.00 | 0.00 | 70 | 1005.8 |
| 20260505190504 | 59 | 217 | 10.0 | 17.0 | 0.00 | 0.00 | 0.00 | 71 | 1005.9 |
| 20260505190012 | 57 | 197 | 10.0 | 17.0 | 0.00 | 0.00 | 0.00 | 73 | 1006.3 |
| 20260505185507 | 57 | 188 | 11.0 | 17.0 | 0.00 | 0.00 | 0.00 | 73 | 1006.3 |
| 20260505185004 | 57 | 194 | 13.0 | 19.0 | 0.00 | 0.00 | 0.00 | 73 | 1006.4 |
| 20260505184512 | 57 | 161 | 14.0 | 19.0 | 0.00 | 0.00 | 0.00 | 73 | 1006.5 |
| 20260505184008 | 57 | 197 | 14.0 | 18.0 | 0.00 | 0.00 | 0.00 | 72 | 1006.5 |
| 20260505183503 | 58 | 201 | 13.0 | 18.0 | 0.00 | 0.00 | 0.00 | 71 | 1006.5 |
| 20260505183012 | 58 | 183 | 12.0 | 17.0 | 0.00 | 0.00 | 0.00 | 71 | 1006.4 |
| 20260505182510 | 58 | 195 | 12.0 | 16.0 | 0.00 | 0.00 | 0.00 | 71 | 1006.4 |
| 20260505182002 | 58 | 206 | 11.0 | 16.0 | 0.00 | 0.00 | 0.00 | 71 | 1006.4 |
| 20260505181504 | 58 | 188 | 11.0 | 15.0 | 0.00 | 0.00 | 0.00 | 73 | 1006.5 |
| 20260505181005 | 57 | 197 | 11.0 | 18.0 | 0.00 | 0.00 | 0.00 | 74 | 1006.4 |
| 20260505180503 | 56 | 190 | 13.0 | 18.0 | 0.00 | 0.00 | 0.00 | 74 | 1006.5 |
| 20260505180007 | 56 | 183 | 14.0 | 18.0 | 0.00 | 0.00 | 0.00 | 73 | 1006.5 |
| 20260505175506 | 56 | 224 | 13.0 | 17.0 | 0.00 | 0.00 | 0.00 | 73 | 1006.5 |
| 20260505175007 | 57 | 189 | 13.0 | 18.0 | 0.00 | 0.00 | 0.00 | 72 | 1006.6 |
| 20260505174514 | 57 | 171 | 13.0 | 18.0 | 0.00 | 0.00 | 0.00 | 73 | 1006.6 |
| 20260505174008 | 57 | 190 | 14.0 | 17.0 | 0.00 | 0.00 | 0.00 | 73 | 1006.7 |
| 20260505173508 | 56 | 165 | 12.0 | 19.0 | 0.00 | 0.00 | 0.00 | 74 | 1006.7 |
| 20260505173014 | 56 | 197 | 13.0 | 19.0 | 0.00 | 0.00 | 0.00 | 74 | 1006.7 |
| 20260505172506 | 57 | 214 | 13.0 | 19.0 | 0.00 | 0.00 | 0.00 | 73 | 1006.8 |
| 20260505172009 | 57 | 190 | 12.0 | 19.0 | 0.00 | 0.00 | 0.00 | 73 | 1006.9 |
| 20260505171514 | 57 | 194 | 14.0 | 18.0 | 0.00 | 0.00 | 0.00 | 72 | 1006.8 |
| 20260505171007 | 57 | 178 | 12.0 | 17.0 | 0.00 | 0.00 | 0.00 | 72 | 1006.9 |
| 20260505170505 | 57 | 209 | 13.0 | 17.0 | 0.00 | 0.00 | 0.00 | 72 | 1007.0 |
| 20260505170006 | 57 | 190 | 11.0 | 16.0 | 0.00 | 0.00 | 0.00 | 73 | 1007.3 |
| 20260505165503 | 57 | 194 | 11.0 | 14.0 | 0.00 | 0.00 | 0.00 | 72 | 1007.3 |
| 20260505165007 | 58 | 190 | 10.0 | 18.0 | 0.00 | 0.00 | 0.00 | 72 | 1007.3 |
| 20260505164511 | 57 | 199 | 12.0 | 18.0 | 0.00 | 0.00 | 0.00 | 75 | 1007.3 |
| 20260505164008 | 56 | 188 | 13.0 | 18.0 | 0.00 | 0.00 | 0.00 | 75 | 1007.2 |
| 20260505163504 | 56 | 184 | 10.0 | 16.0 | 0.00 | 0.00 | 0.00 | 75 | 1007.1 |
| 20260505163018 | 56 | 192 | 10.0 | 16.0 | 0.00 | 0.00 | 0.00 | 75 | 1007.3 |
| 20260505162511 | 56 | 180 | 11.0 | 15.0 | 0.00 | 0.00 | 0.00 | 75 | 1007.5 |
| 20260505162007 | 56 | 167 | 11.0 | 15.0 | 0.00 | 0.00 | 0.00 | 74 | 1007.7 |
| 20260505161534 | 56 | 192 | 11.0 | 15.0 | 0.00 | 0.00 | 0.00 | 74 | 1007.9 |
| 20260505161005 | 57 | 191 | 10.0 | 15.0 | 0.00 | 0.00 | 0.00 | 74 | 1007.9 |
| 20260505160508 | 56 | 185 | 10.0 | 16.0 | 0.00 | 0.00 | 0.00 | 76 | 1008.1 |
| 20260505153017 | 56 | 153 | 8.0 | 15.0 | 0.00 | 0.00 | 0.00 | 78 | 1008.3 |
| 20260505152506 | 55 | 153 | 10.0 | 15.0 | 0.00 | 0.00 | 0.00 | 77 | 1008.4 |
| 20260505152012 | 56 | 155 | 9.0 | 13.0 | 0.00 | 0.00 | 0.00 | 75 | 1008.3 |
| 20260505151519 | 56 | 200 | 6.0 | 12.0 | 0.00 | 0.00 | 0.00 | 76 | 1008.4 |
| 20260505151011 | 56 | 169 | 7.0 | 17.0 | 0.00 | 0.00 | 0.00 | 76 | 1008.5 |
| 20260505150508 | 56 | 201 | 9.0 | 17.0 | 0.00 | 0.00 | 0.00 | 77 | 1008.5 |
| 20260505140508 | 55 | 187 | 12.0 | 18.0 | 0.00 | 0.00 | 0.00 | 78 | 1008.0 |
| 20260505125008 | 53 | 186 | 8.0 | 12.0 | 0.00 | 0.00 | 0.00 | 81 | 1008.6 |
| 20260505124523 | 53 | 168 | 6.0 | 10.0 | 0.00 | 0.00 | 0.00 | 81 | 1008.5 |
| 20260505124008 | 53 | 194 | 6.0 | 11.0 | 0.00 | 0.00 | 0.00 | 81 | 1008.4 |
| 20260505123510 | 52 | 181 | 7.0 | 12.0 | 0.00 | 0.00 | 0.00 | 82 | 1008.5 |
| 20260505123023 | 52 | 178 | 8.0 | 12.0 | 0.00 | 0.00 | 0.00 | 82 | 1008.5 |
| 20260505122508 | 52 | 165 | 9.0 | 12.0 | 0.00 | 0.00 | 0.00 | 81 | 1008.5 |
| 20260505122011 | 52 | 188 | 6.0 | 12.0 | 0.00 | 0.00 | 0.00 | 82 | 1008.6 |
| 20260505121528 | 52 | 180 | 8.0 | 13.0 | 0.00 | 0.00 | 0.00 | 82 | 1008.7 |
| 20260505121008 | 51 | 178 | 9.0 | 13.0 | 0.00 | 0.00 | 0.00 | 82 | 1008.6 |
| 20260505120512 | 51 | 167 | 7.0 | 10.0 | 0.00 | 0.00 | 0.00 | 81 | 1008.5 |
| 20260505120019 | 51 | 178 | 6.0 | 9.0 | 0.00 | 0.00 | 0.00 | 82 | 1008.6 |
| 20260505115506 | 51 | 195 | 6.0 | 9.0 | 0.00 | 0.00 | 0.00 | 82 | 1008.7 |
| 20260505115008 | 51 | 193 | 7.0 | 9.0 | 0.00 | 0.00 | 0.00 | 82 | 1008.7 |
| 20260505114523 | 51 | 179 | 6.0 | 9.0 | 0.00 | 0.00 | 0.00 | 82 | 1008.7 |
| 20260505114011 | 51 | 191 | 7.0 | 10.0 | 0.00 | 0.00 | 0.00 | 82 | 1008.7 |
| 20260505113502 | 51 | 192 | 7.0 | 10.0 | 0.00 | 0.00 | 0.00 | 82 | 1008.8 |
| 20260505113006 | 50 | 188 | 6.0 | 8.0 | 0.00 | 0.00 | 0.00 | 82 | 1008.8 |
| 20260505112505 | 50 | 188 | 6.0 | 8.0 | 0.00 | 0.00 | 0.00 | 82 | 1008.8 |
| 20260505112003 | 50 | 195 | 5.0 | 8.0 | 0.00 | 0.00 | 0.00 | 82 | 1008.7 |
| 20260505111510 | 50 | 182 | 6.0 | 8.0 | 0.00 | 0.00 | 0.00 | 81 | 1008.6 |
| 20260505111006 | 50 | 196 | 5.0 | 7.0 | 0.00 | 0.00 | 0.00 | 82 | 1008.7 |
| 20260505110510 | 50 | 207 | 5.0 | 7.0 | 0.00 | 0.00 | 0.00 | 82 | 1008.6 |
| 20260505102002 | 50 | 209 | 2.0 | 5.0 | 0.00 | 0.00 | 0.00 | 80 | 1008.9 |
| 20260505101510 | 50 | 208 | 2.0 | 5.0 | 0.00 | 0.00 | 0.00 | 80 | 1008.8 |
| 20260505101003 | 49 | 253 | 3.0 | 5.0 | 0.00 | 0.00 | 0.00 | 80 | 1008.8 |
| 20260505100506 | 49 | 226 | 2.0 | 5.0 | 0.00 | 0.00 | 0.00 | 80 | 1008.8 |
| 20260505100017 | 49 | 210 | 2.0 | 5.0 | 0.00 | 0.00 | 0.00 | 81 | 1008.8 |
| 20260505095505 | 49 | 225 | 2.0 | 5.0 | 0.00 | 0.00 | 0.00 | 81 | 1008.7 |
| 20260505095009 | 48 | 222 | 2.0 | 5.0 | 0.00 | 0.00 | 0.00 | 82 | 1008.8 |
| 20260505094518 | 48 | 224 | 1.0 | 3.0 | 0.00 | 0.00 | 0.00 | 82 | 1008.9 |
| 20260505094010 | 48 | 204 | 2.0 | 4.0 | 0.00 | 0.00 | 0.00 | 82 | 1008.8 |
| 20260505093506 | 48 | 221 | 2.0 | 4.0 | 0.00 | 0.00 | 0.00 | 80 | 1008.7 |
| 20260505093004 | 48 | 203 | 1.0 | 2.0 | 0.00 | 0.00 | 0.00 | 80 | 1008.8 |
| 20260505092503 | 48 | 205 | 1.0 | 2.0 | 0.00 | 0.00 | 0.00 | 79 | 1008.7 |
| 20260505092003 | 49 | 199 | 1.0 | 4.0 | 0.00 | 0.00 | 0.00 | 78 | 1008.8 |
| 20260505091505 | 49 | 192 | 1.0 | 4.0 | 0.00 | 0.00 | 0.00 | 80 | 1008.8 |
| 20260505091006 | 49 | 215 | 1.0 | 4.0 | 0.00 | 0.00 | 0.00 | 81 | 1008.8 |
| 20260505090504 | 48 | 219 | 1.0 | 4.0 | 0.00 | 0.00 | 0.00 | 83 | 1008.9 |
| 20260505090021 | 47 | 238 | 1.0 | 4.0 | 0.00 | 0.00 | 0.00 | 84 | 1008.8 |
| 20260505085504 | 47 | 211 | 1.0 | 3.0 | 0.00 | 0.00 | 0.00 | 83 | 1008.9 |
| 20260505085008 | 47 | 195 | 0.0 | 2.0 | 0.00 | 0.00 | 0.00 | 83 | 1008.9 |
| 20260505084516 | 47 | 209 | 0.0 | 1.0 | 0.00 | 0.00 | 0.00 | 82 | 1009.0 |
| 20260505084009 | 47 | 209 | 0.0 | 2.0 | 0.00 | 0.00 | 0.00 | 82 | 1008.9 |
| 20260505083510 | 47 | 209 | 1.0 | 2.0 | 0.00 | 0.00 | 0.00 | 82 | 1008.9 |
| 20260505083020 | 47 | 209 | 1.0 | 2.0 | 0.00 | 0.00 | 0.00 | 82 | 1009.0 |
| 20260505082512 | 47 | 203 | 1.0 | 3.0 | 0.00 | 0.00 | 0.00 | 81 | 1009.0 |
| 20260505082007 | 47 | 208 | 1.0 | 3.0 | 0.00 | 0.00 | 0.00 | 81 | 1009.0 |
| 20260505081506 | 47 | 200 | 1.0 | 3.0 | 0.00 | 0.00 | 0.00 | 80 | 1009.0 |
| 20260505081003 | 48 | 215 | 1.0 | 4.0 | 0.00 | 0.00 | 0.00 | 79 | 1009.0 |
| 20260505080503 | 48 | 240 | 0.0 | 4.0 | 0.00 | 0.00 | 0.00 | 79 | 1009.1 |
| 20260505080020 | 48 | 215 | 1.0 | 3.0 | 0.00 | 0.00 | 0.00 | 79 | 1009.2 |
| 20260505075504 | 48 | 222 | 0.0 | 3.0 | 0.00 | 0.00 | 0.00 | 78 | 1009.0 |
| 20260505075003 | 48 | 203 | 0.0 | 2.0 | 0.00 | 0.00 | 0.00 | 77 | 1009.1 |
| 20260505074513 | 48 | 207 | 0.0 | 3.0 | 0.00 | 0.00 | 0.00 | 76 | 1009.1 |
| 20260505074004 | 49 | 209 | 1.0 | 3.0 | 0.00 | 0.00 | 0.00 | 76 | 1009.0 |
| 20260505073505 | 49 | 208 | 1.0 | 6.0 | 0.00 | 0.00 | 0.00 | 76 | 1009.0 |
| 20260505073028 | 49 | 213 | 2.0 | 6.0 | 0.00 | 0.00 | 0.00 | 75 | 1008.9 |
| 20260505072509 | 49 | 230 | 3.0 | 5.0 | 0.00 | 0.00 | 0.00 | 75 | 1009.0 |
| 20260505072011 | 49 | 215 | 2.0 | 4.0 | 0.00 | 0.00 | 0.00 | 75 | 1008.9 |
| 20260505071522 | 49 | 214 | 2.0 | 4.0 | 0.00 | 0.00 | 0.00 | 75 | 1008.9 |
| 20260505071008 | 49 | 206 | 1.0 | 3.0 | 0.00 | 0.00 | 0.00 | 74 | 1008.9 |
| 20260505070508 | 49 | 193 | 1.0 | 3.0 | 0.00 | 0.00 | 0.00 | 73 | 1008.8 |
| 20260505070004 | 50 | 199 | 1.0 | 3.0 | 0.00 | 0.00 | 0.00 | 72 | 1008.8 |
| 20260505065506 | 50 | 224 | 1.0 | 4.0 | 0.00 | 0.00 | 0.00 | 70 | 1008.8 |